[[{"header":{"parameterUnit":"m.s-1","parameterCategory":1,"la1":30.2991,"la2":30.254,"lo1":-89.0895,"lo2":-89.0444,"dy":0.0017,"dx":0.0017,"nx":28,"ny":28,"refTime":"2025-07-18T03:00:00:Z","depth":0,"parameterNumber":2,"parameterNumberName":"U-component_of_WINDS"},"data":[0,0,0,0,0,0,0,0,0,0,0,0,0,0,0,0,0,0,0,0,0,0,0,0,0,0,0,0,0,0,0,0,0,0,0,0,0,0,0,0,0,0,0,0,0,0,0,0,0,0,0,0,0,0,0,0,0,0,-3.747,-3.7471,0,-3.754,-3.7541,-3.7542,-3.754,-3.7539,-3.7538,-3.7537,-3.7604,-3.7607,-3.761,0,0,0,0,0,0,0,0,0,0,0,0,0,-3.7331,-3.7334,-3.747,-3.7471,-3.7472,-3.754,-3.7541,-3.7542,-3.754,-3.7539,-3.7538,-3.7537,-3.7603,-3.7607,-3.761,0,0,0,0,0,0,0,0,0,0,0,0,0,-3.7395,-3.7334,-3.747,-3.7479,-3.7481,-3.754,-3.7541,-3.7542,-3.754,-3.7539,-3.7537,-3.7536,-3.7602,-3.7606,-3.761,-3.7663,0,0,-3.7622,-3.7624,0,0,0,0,0,0,0,0,-3.7391,-3.74,-3.7477,-3.7479,-3.7481,-3.753,-3.7517,-3.7583,-3.7541,-3.7517,-3.7537,-3.7535,-3.758,-3.7586,-3.7602,-3.7666,-3.7669,-3.7623,-3.7625,-3.7627,-3.7628,0,0,0,0,0,0,0,-3.7387,-3.7397,-3.7498,-3.7478,-3.748,-3.7479,-3.7486,-3.7529,-3.7556,-3.7519,-3.7519,-3.7528,-3.7581,-3.7598,-3.7604,-3.767,-3.7623,-3.7626,-3.7629,-3.763,-3.778,-3.7782,0,0,0,0,0,0,-3.7381,-3.7393,-3.7495,-3.75,-3.7432,-3.7482,-3.7491,-3.7515,-3.7555,-3.756,-3.7529,-3.7528,-3.7592,-3.7599,-3.7606,-3.767,-3.7627,-3.7631,-3.7633,-3.7779,-3.7781,-3.7782,0,0,0,0,0,0,-3.7378,-3.739,-3.7493,-3.7447,-3.746,-3.7486,-3.7514,-3.7518,-3.7535,-3.7563,-3.7567,-3.7542,-3.7591,-3.76,-3.7649,-3.7672,-3.7633,-3.7636,-3.7777,-3.7779,-3.7782,-3.7798,0,0,0,0,0,0,-3.7374,-3.7389,-3.7411,-3.7447,-3.7462,-3.7536,-3.7515,-3.752,-3.7542,-3.7541,-3.7576,-3.7581,-3.7591,-3.7643,-3.7653,-3.7677,-3.7639,-3.7775,-3.7778,-3.7781,-3.7795,-3.78,-3.7805,0,0,0,0,0,-3.7369,-3.7412,-3.7412,-3.7424,-3.7489,-3.7537,-3.7545,-3.7558,-3.7544,-3.7565,-3.7583,-3.7579,-3.7669,-3.7648,-3.7659,-3.7684,-3.7774,-3.7777,-3.7781,-3.7793,-3.7799,-3.7805,0,0,0,0,0,0,-3.7375,-3.7416,-3.7417,-3.7473,-3.7502,-3.7537,-3.7563,-3.7564,-3.7596,-3.7593,-3.7606,-3.7614,-3.7662,-3.7679,-3.7655,-3.7737,-3.7719,-3.7725,-3.7725,-3.7731,-3.7736,-3.7729,-3.7643,0,0,0,0,0,-3.7383,-3.742,-3.7453,-3.7499,-3.7514,-3.7536,-3.7557,-3.7565,-3.7594,-3.7606,-3.7628,-3.7655,-3.7689,-3.7711,-3.7745,-3.7799,-3.7805,-3.7821,-3.7826,-3.783,-3.7834,-3.7862,-3.7869,-3.7794,-3.7794,-3.7794,0,0,-3.7399,-3.7427,-3.7449,-3.7501,-3.7524,-3.756,-3.7546,-3.7585,-3.7611,-3.7611,-3.7658,-3.7676,-3.7707,-3.7759,-3.7782,-3.7774,-3.7857,-3.7834,-3.7837,-3.7839,-3.7867,-3.7874,-3.788,-3.7797,-3.7796,-3.7796,0,0,-3.7447,-3.7473,-3.7513,-3.7537,-3.7573,-3.7587,-3.7597,-3.7633,-3.7644,-3.7692,-3.7693,-3.7724,-3.7783,-3.7805,-3.7824,-3.7882,-3.7879,-3.7892,-3.7916,-3.7943,-3.7949,-3.7954,-3.7973,-3.798,-3.7897,-3.7897,-3.7897,0,-3.7462,-3.7518,-3.7533,-3.7572,-3.7595,-3.7599,-3.7638,-3.7661,-3.7705,-3.7719,-3.771,-3.7784,-3.7806,-3.7861,-3.7875,-3.7892,-3.7902,-3.7887,-3.7948,-3.7953,-3.7958,-3.7976,-3.7983,-3.7898,-3.7898,-3.7898,-3.7898,0,-3.7534,-3.7573,-3.7601,-3.7645,-3.7671,-3.771,-3.773,-3.7754,-3.7759,-3.7775,-3.7823,-3.785,-3.7888,-3.7902,-3.7907,-3.7958,-3.7952,-3.7945,-3.7926,-3.7966,-3.7983,-3.799,-3.79,-3.7899,-3.7899,-3.7899,0,0,-3.7585,-3.7638,-3.7648,-3.7668,-3.7708,-3.7737,-3.7777,-3.7816,-3.7835,-3.7866,-3.7898,-3.7948,-3.7942,-3.7964,-3.7972,-3.7996,-3.8038,-3.7986,-3.7987,-3.7993,-3.8094,-3.8097,-3.8105,-3.8037,-3.8039,-3.804,-3.809,0,-3.7635,-3.7706,-3.7722,-3.7782,-3.7817,-3.7822,-3.7856,-3.7883,-3.7899,-3.793,-3.7947,-3.7982,-3.7972,-3.7985,-3.801,-3.8028,-3.8058,-3.8024,-3.8065,-3.8066,-3.8054,-3.8114,-3.8118,-3.8164,-3.8097,-3.8099,-3.8099,0,-3.7703,-3.7737,-3.7801,-3.7837,-3.7852,-3.7883,-3.7919,-3.7949,-3.798,-3.799,-3.8015,-3.802,-3.806,-3.8041,-3.8095,-3.8072,-3.809,-3.8101,-3.8103,-3.8105,-3.8083,-3.8116,-3.8179,-3.8185,-3.811,-3.8109,-3.8109,0,-3.7731,-3.7793,-3.7839,-3.7856,-3.79,-3.7921,-3.7939,-3.7969,-3.7992,-3.8023,-3.8038,-3.8073,-3.8092,-3.8119,-3.8133,-3.8119,-3.8185,-3.8168,-3.8192,-3.8192,-3.8204,-3.8202,-3.8269,-3.8219,-3.8219,-3.8219,-3.8219,0,-3.7785,-3.7823,-3.7853,-3.7881,-3.7924,-3.7941,-3.7983,-3.8001,-3.8028,-3.8059,-3.8065,-3.8094,-3.8112,-3.8143,-3.8154,-3.8196,-3.8205,-3.8212,-3.8214,-3.821,-3.8209,-3.822,-3.8216,-3.8221,-3.822,-3.822,-3.822,0,-3.7822,-3.7844,-3.7894,-3.7932,-3.7942,-3.7972,-3.8003,-3.803,-3.8047,-3.8085,-3.8095,-3.8121,-3.8157,-3.8175,-3.822,-3.8228,-3.8274,-3.8275,-3.8264,-3.8264,-3.8287,-3.8283,-3.8361,-3.8371,-3.8316,-3.8317,-3.8317,0,-3.7854,-3.7884,-3.7925,-3.7947,-3.7966,-3.8001,-3.8024,-3.8042,-3.8066,-3.8104,-3.8126,-3.8163,-3.8194,-3.8251,-3.8273,-3.8307,-3.8308,-3.8332,-3.8312,-3.8307,-3.8305,-3.8302,-3.8305,-3.8335,-3.8335,-3.8336,-3.8336,0,-3.7906,-3.7916,-3.795,-3.7987,-3.8015,-3.8045,-3.8075,-3.8092,-3.8115,-3.814,-3.8179,-3.8202,-3.8249,-3.8285,-3.8321,-3.8339,-3.834,-3.8343,-3.835,-3.8345,-3.8336,-3.8339,-3.8271,-3.834,-3.834,-3.834,-3.8339,-3.8339,-3.794,-3.7967,-3.8,-3.8037,-3.8062,-3.809,-3.8117,-3.8137,-3.817,-3.821,-3.8219,-3.8259,-3.8289,-3.8337,-3.8356,-3.8387,-3.8381,-3.8392,-3.8394,-3.8396,-3.8396,-3.8333,-3.8394,-3.8394,-3.8394,-3.8393,-3.8393,0,-3.7991,-3.8013,-3.8048,-3.809,-3.8119,-3.8121,-3.8154,-3.8177,-3.8213,-3.8242,-3.8272,-3.8315,-3.8351,-3.8376,-3.8411,-3.843,-3.8432,-3.8439,-3.8436,-3.844,-3.84,-3.8389,-3.8437,-3.8437,-3.8437,-3.8437,-3.8437,-3.8437,-3.8021,-3.8066,-3.808,-3.8136,-3.8158,-3.8198,-3.8216,-3.8241,-3.8264,-3.8313,-3.8343,-3.836,-3.8386,-3.8424,-3.8456,-3.8462,-3.8474,-3.8481,-3.8486,-3.8448,-3.8443,-3.8439,-3.8429,-3.8484,-3.8484,-3.8524,-3.8524,-3.8524]},{"header":{"parameterUnit":"m.s-1","parameterCategory":1,"la1":30.2991,"la2":30.254,"lo1":-89.0895,"lo2":-89.0444,"dy":0.0017,"dx":0.0017,"nx":28,"ny":28,"refTime":"2025-07-18T03:00:00:Z","depth":0,"parameterNumber":3,"parameterNumberName":"V-component_of_WINDS"},"data":[0,0,0,0,0,0,0,0,0,0,0,0,0,0,0,0,0,0,0,0,0,0,0,0,0,0,0,0,0,0,0,0,0,0,0,0,0,0,0,0,0,0,0,0,0,0,0,0,0,0,0,0,0,0,0,0,0,0,4.3439,4.3441,0,4.3583,4.3585,4.3586,4.356,4.3558,4.3555,4.3553,4.3701,4.3707,4.3713,0,0,0,0,0,0,0,0,0,0,0,0,0,4.3144,4.3149,4.3439,4.3441,4.3443,4.3583,4.3585,4.3587,4.3561,4.3558,4.3555,4.3552,4.3699,4.3706,4.3714,0,0,0,0,0,0,0,0,0,0,0,0,0,4.3278,4.3151,4.3439,4.3447,4.3449,4.3583,4.3585,4.3587,4.3562,4.3558,4.3554,4.355,4.3696,4.3705,4.3715,4.385,0,0,4.3744,4.3748,0,0,0,0,0,0,0,0,4.3271,4.3289,4.3444,4.3446,4.3449,4.355,4.3535,4.3676,4.3562,4.3519,4.3553,4.3548,4.3654,4.3666,4.3702,4.3857,4.3863,4.3745,4.375,4.3754,4.3757,0,0,0,0,0,0,0,4.3262,4.3283,4.3496,4.3446,4.3449,4.3444,4.3459,4.3562,4.3606,4.3522,4.3521,4.3538,4.3654,4.3693,4.3705,4.3865,4.3744,4.3753,4.3759,4.3762,4.4141,4.4146,0,0,0,0,0,0,4.325,4.3275,4.3492,4.35,4.3349,4.3452,4.3469,4.3521,4.3605,4.3614,4.3541,4.3536,4.3679,4.3694,4.371,4.3876,4.3754,4.3763,4.3769,4.4137,4.4142,4.4147,0,0,0,0,0,0,4.3243,4.3269,4.3486,4.3388,4.3415,4.3461,4.3521,4.3526,4.3565,4.3619,4.3627,4.3572,4.3676,4.3697,4.3816,4.388,4.3768,4.3776,4.4132,4.4139,4.4145,4.4206,0,0,0,0,0,0,4.3235,4.3267,4.3318,4.3389,4.342,4.3589,4.3525,4.3532,4.3581,4.3576,4.365,4.3659,4.3675,4.3802,4.3825,4.3891,4.3784,4.4126,4.4135,4.4143,4.4199,4.4214,4.4227,0,0,0,0,0,4.3224,4.3329,4.3321,4.3347,4.3485,4.3592,4.361,4.3626,4.3586,4.3639,4.3674,4.3656,4.387,4.3814,4.3841,4.391,4.4122,4.4132,4.4142,4.4192,4.4211,4.4227,0,0,0,0,0,0,4.3264,4.3338,4.333,4.3461,4.352,4.3588,4.3654,4.3645,4.3717,4.371,4.3727,4.3744,4.3865,4.39,4.3837,4.4047,4.399,4.4006,4.402,4.4038,4.4052,4.4041,4.3791,0,0,0,0,0,4.3288,4.3369,4.3429,4.3539,4.3569,4.3607,4.3654,4.3661,4.3724,4.3749,4.3793,4.3855,4.3936,4.3989,4.4066,4.4204,4.4221,4.4265,4.4279,4.4291,4.4304,4.4381,4.4402,4.4179,4.4179,4.4179,0,0,4.3338,4.3389,4.3439,4.3548,4.3595,4.3679,4.3628,4.3718,4.3781,4.3763,4.3878,4.3913,4.3983,4.4113,4.4172,4.4145,4.4369,4.4303,4.4312,4.4319,4.4393,4.4415,4.4433,4.4186,4.4185,4.4184,0,0,4.3473,4.3519,4.3616,4.3665,4.3737,4.3762,4.3785,4.3855,4.3877,4.3993,4.3982,4.4058,4.4196,4.4247,4.4292,4.4449,4.4436,4.4474,4.4548,4.4623,4.4641,4.4657,4.4714,4.4734,4.4487,4.4487,4.4487,0,4.3526,4.3651,4.3667,4.3759,4.3809,4.3797,4.3896,4.3943,4.4037,4.4072,4.4041,4.4216,4.4263,4.4405,4.4443,4.4479,4.4508,4.4465,4.4637,4.4653,4.4668,4.4723,4.4744,4.4491,4.4491,4.449,4.449,0,4.3714,4.3801,4.3871,4.3963,4.402,4.4116,4.4147,4.4203,4.4207,4.4235,4.4355,4.441,4.45,4.4534,4.4538,4.4678,4.466,4.4633,4.4576,4.4693,4.4745,4.4766,4.4497,4.4495,4.4494,4.4493,0,0,4.3875,4.3977,4.4002,4.4045,4.4125,4.4193,4.4289,4.4377,4.4426,4.4492,4.4573,4.4693,4.4669,4.4719,4.4729,4.4795,4.4918,4.4761,4.4763,4.4789,4.5078,4.5098,4.5122,4.4911,4.4915,4.4918,4.5073,0,4.4018,4.4186,4.4205,4.4356,4.4438,4.4429,4.4513,4.4572,4.4602,4.4677,4.471,4.4794,4.4756,4.4787,4.4852,4.4889,4.4977,4.4878,4.4988,4.4991,4.497,4.5149,4.517,4.5313,4.5093,4.5096,4.5099,0,4.4206,4.4278,4.4438,4.4509,4.4544,4.4619,4.4702,4.4774,4.4841,4.4859,4.4916,4.4918,4.5018,4.4959,4.5098,4.5031,4.5078,4.5103,4.5109,4.512,4.5052,4.5165,4.5359,4.538,4.5131,4.5128,4.5126,0,4.4309,4.4446,4.456,4.4597,4.4682,4.4736,4.4774,4.4838,4.489,4.4964,4.4998,4.5082,4.5128,4.5194,4.5219,4.5173,4.5358,4.53,4.5376,4.5376,4.5415,4.5412,4.5619,4.5444,4.5444,4.5444,4.5443,0,4.4466,4.4564,4.4608,4.4678,4.4788,4.4809,4.4918,4.4954,4.5012,4.5089,4.5087,4.516,4.5189,4.5268,4.5288,4.5402,4.5422,4.544,4.5444,4.544,4.5438,4.547,4.5461,4.5449,4.5448,4.5447,4.5446,0,4.4599,4.4632,4.4756,4.4828,4.4848,4.4927,4.4988,4.5057,4.5086,4.5185,4.521,4.5257,4.5349,4.5381,4.5492,4.5506,4.5639,4.5634,4.5616,4.5617,4.5692,4.5685,4.5927,4.5961,4.5763,4.5765,4.5766,0,4.4697,4.4773,4.4853,4.4905,4.4946,4.503,4.5084,4.5108,4.5165,4.5249,4.5308,4.54,4.5474,4.5623,4.5668,4.5754,4.5752,4.5831,4.5765,4.5759,4.5754,4.575,4.5758,4.5843,4.5845,4.5847,4.5848,0,4.4868,4.4882,4.4959,4.5044,4.5109,4.5177,4.5242,4.5285,4.532,4.5384,4.5479,4.5537,4.5652,4.5744,4.5833,4.5873,4.5868,4.5869,4.5891,4.5888,4.5875,4.5884,4.565,4.5863,4.5862,4.5861,4.586,4.5859,4.4988,4.5055,4.5123,4.5211,4.5263,4.5325,4.5393,4.5432,4.5512,4.5607,4.5617,4.572,4.5789,4.5907,4.5952,4.6034,4.6012,4.6044,4.6052,4.606,4.6066,4.5862,4.605,4.605,4.6049,4.6049,4.6049,0,4.5159,4.5203,4.5283,4.5376,4.5446,4.5435,4.5507,4.5566,4.5657,4.5721,4.5795,4.5906,4.5995,4.6048,4.6139,4.6194,4.6194,4.6217,4.6213,4.6223,4.608,4.6052,4.6216,4.6216,4.6216,4.6216,4.6216,4.6216,4.5257,4.5371,4.5393,4.5534,4.5577,4.5678,4.5721,4.5779,4.583,4.5953,4.6028,4.6062,4.6123,4.6218,4.6301,4.6314,4.6348,4.6374,4.6385,4.625,4.6233,4.6216,4.619,4.6381,4.6381,4.6521,4.6523,4.6524]}]]